DLH05U LPPT-EDDF

Flight info

Callsign DLH05U
Flight time 2h 37m
Altitude 34000
Route IXIDA DCT TOSDI DCT ZMR DCT NEA DCT DGO DCT LPA DCT GOSVI DCT TOPTU DCT TOU/N0450F360 DCT GAI DCT MEN DCT NINUN DCT LATAM DCT ETREK DCT LTP DCT SOPLO DCT OMASI DCT KINNI DCT SOSAL DCT KORED DCT BERSU N871 DITON/N0451F350 DCT LADOL/N0454F360 T163 EMPAX EMPAX5B
Aircraft A321/M-SDE3FGHIRWY/LB1

Departure

Time 2026-05-07 16:42
Airport Lisbon Humberto Delgado Airport (LPPT)

Arrival

Time 2026-05-07 19:19
Airport Frankfurt Main Airport (EDDF)
Time Latitude Longitude Altitude Speed Heading
2026-05-07 16:07 38.77207 -9.13154 347 ft 0 kts 75°
2026-05-07 16:29 38.77207 -9.13158 349 ft 3 kts 75°
2026-05-07 16:29 38.77200 -9.13189 358 ft 2 kts 75°
2026-05-07 16:30 38.77192 -9.13213 353 ft 4 kts 35°
2026-05-07 16:30 38.77171 -9.13219 357 ft 2 kts 348°
2026-05-07 16:30 38.77145 -9.13211 354 ft 4 kts 345°
2026-05-07 16:30 38.77135 -9.13207 356 ft 0 kts 348°
2026-05-07 16:35 38.77138 -9.13208 355 ft 1 kts 348°
2026-05-07 16:35 38.77150 -9.13211 352 ft 2 kts 347°
2026-05-07 16:35 38.77175 -9.13219 358 ft 5 kts 347°
2026-05-07 16:36 38.77232 -9.13235 347 ft 14 kts 348°
2026-05-07 16:36 38.77315 -9.13257 347 ft 0 kts 349°
2026-05-07 16:36 38.77322 -9.13260 354 ft 4 kts 339°
2026-05-07 16:37 38.77326 -9.13318 350 ft 11 kts 259°
2026-05-07 16:37 38.77304 -9.13455 351 ft 20 kts 258°
2026-05-07 16:37 38.77270 -9.13658 346 ft 25 kts 258°
2026-05-07 16:37 38.77217 -9.13860 349 ft 20 kts 212°
2026-05-07 16:38 38.77077 -9.13929 352 ft 23 kts 204°
2026-05-07 16:38 38.76917 -9.14011 356 ft 26 kts 202°
2026-05-07 16:38 38.76761 -9.14094 350 ft 23 kts 204°
2026-05-07 16:38 38.76607 -9.14180 350 ft 22 kts 206°
2026-05-07 16:39 38.76529 -9.14255 350 ft 12 kts 259°
2026-05-07 16:39 38.76539 -9.14303 348 ft 0 kts 291°
2026-05-07 16:40 38.76542 -9.14315 348 ft 5 kts 291°
2026-05-07 16:40 38.76584 -9.14398 336 ft 15 kts 338°
2026-05-07 16:40 38.76675 -9.14373 334 ft 6 kts 21°
2026-05-07 16:40 38.76677 -9.14372 334 ft 0 kts 21°
2026-05-07 16:41 38.76735 -9.14342 337 ft 33 kts 21°
2026-05-07 16:41 38.77173 -9.14106 348 ft 101 kts 22°
2026-05-07 16:42 38.78004 -9.13651 359 ft 154 kts 17°
2026-05-07 16:42 38.79009 -9.13120 850 ft 157 kts 15°
2026-05-07 16:42 38.80016 -9.12589 1574 ft 157 kts 17°
2026-05-07 16:42 38.81066 -9.12032 1989 ft 172 kts 16°
2026-05-07 16:43 38.82194 -9.11262 2188 ft 195 kts 29°
2026-05-07 16:43 38.83419 -9.10303 2413 ft 216 kts 27°
2026-05-07 16:43 38.84782 -9.09253 2552 ft 241 kts 27°
2026-05-07 16:43 38.86286 -9.08094 2847 ft 262 kts 28°
2026-05-07 16:44 38.87870 -9.06868 3459 ft 269 kts 28°
2026-05-07 16:44 38.89475 -9.05598 4095 ft 274 kts 34°
2026-05-07 16:44 38.90935 -9.03994 4830 ft 276 kts 43°
2026-05-07 16:44 38.92363 -9.02326 5549 ft 279 kts 44°
2026-05-07 16:45 38.93801 -9.00634 6287 ft 281 kts 44°
2026-05-07 16:45 38.95239 -8.98944 6982 ft 283 kts 44°
2026-05-07 16:45 38.96711 -8.97216 7593 ft 288 kts 45°
2026-05-07 16:45 38.98203 -8.95468 8245 ft 291 kts 44°
2026-05-07 16:46 38.99714 -8.93702 8868 ft 296 kts 45°
2026-05-07 16:46 39.01250 -8.91906 9497 ft 301 kts 43°
2026-05-07 16:46 39.02806 -8.90084 10049 ft 306 kts 44°
2026-05-07 16:46 39.04433 -8.88180 10210 ft 327 kts 44°
2026-05-07 16:47 39.06167 -8.86152 10336 ft 346 kts 43°
2026-05-07 16:47 39.07991 -8.84016 10460 ft 364 kts 44°
2026-05-07 16:47 39.09910 -8.81769 10612 ft 380 kts 43°
2026-05-07 16:47 39.11884 -8.79460 10997 ft 387 kts 44°
2026-05-07 16:48 39.13861 -8.77145 11492 ft 390 kts 43°
2026-05-07 16:48 39.15873 -8.74783 12037 ft 393 kts 44°
2026-05-07 16:48 39.17806 -8.72225 12543 ft 394 kts 50°
2026-05-07 16:48 39.19598 -8.69599 13131 ft 395 kts 50°
2026-05-07 16:49 39.21417 -8.66925 13663 ft 398 kts 50°
2026-05-07 16:49 39.23248 -8.64236 14120 ft 401 kts 50°
2026-05-07 16:49 39.25097 -8.61528 14536 ft 405 kts 49°
2026-05-07 16:49 39.26967 -8.58786 14979 ft 408 kts 49°
2026-05-07 16:50 39.28850 -8.56022 15405 ft 412 kts 49°
2026-05-07 16:50 39.30751 -8.53229 15826 ft 415 kts 49°
2026-05-07 16:50 39.32670 -8.50405 16228 ft 419 kts 49°
2026-05-07 16:50 39.34595 -8.47572 16649 ft 422 kts 48°
2026-05-07 16:51 39.36538 -8.44711 17083 ft 424 kts 48°
2026-05-07 16:51 39.38482 -8.41845 17497 ft 427 kts 48°
2026-05-07 16:51 39.40447 -8.38946 17911 ft 429 kts 48°
2026-05-07 16:51 39.42421 -8.36027 18284 ft 432 kts 48°
2026-05-07 16:52 39.44405 -8.33093 18663 ft 433 kts 47°
2026-05-07 16:52 39.46391 -8.30155 19053 ft 435 kts 47°
2026-05-07 16:52 39.48384 -8.27202 19429 ft 436 kts 47°
2026-05-07 16:52 39.50390 -8.24224 19781 ft 439 kts 47°
2026-05-07 16:53 39.52402 -8.21233 20145 ft 441 kts 47°
2026-05-07 16:53 39.54425 -8.18224 20490 ft 444 kts 47°
2026-05-07 16:53 39.56452 -8.15207 20836 ft 446 kts 47°
2026-05-07 16:53 39.58497 -8.12158 21185 ft 449 kts 47°
2026-05-07 16:54 39.60544 -8.09106 21520 ft 451 kts 47°
2026-05-07 16:54 39.62587 -8.06052 21837 ft 454 kts 47°
2026-05-07 16:54 39.64667 -8.02944 22150 ft 457 kts 47°
2026-05-07 16:54 39.66088 -8.00858 22359 ft 458 kts 45°
2026-05-07 16:55 39.69029 -7.96904 22763 ft 461 kts 42°
2026-05-07 16:55 39.70590 -7.94947 22964 ft 462 kts 41°
2026-05-07 16:55 39.72942 -7.92088 23273 ft 464 kts 40°
2026-05-07 16:55 39.75316 -7.89232 23544 ft 467 kts 40°
2026-05-07 16:56 39.77694 -7.86341 23779 ft 469 kts 40°
2026-05-07 16:56 39.80052 -7.83422 23837 ft 468 kts 41°
2026-05-07 16:56 39.84725 -7.77505 23840 ft 468 kts 42°
2026-05-07 16:57 39.87046 -7.74539 23844 ft 468 kts 42°
2026-05-07 16:57 39.89364 -7.71571 23850 ft 468 kts 42°
2026-05-07 16:57 39.91665 -7.68631 23840 ft 468 kts 41°
2026-05-07 16:57 39.93989 -7.65676 23842 ft 468 kts 41°
2026-05-07 16:58 39.96325 -7.62710 23849 ft 468 kts 41°
2026-05-07 16:58 39.98624 -7.59787 23850 ft 469 kts 41°
2026-05-07 16:58 40.00961 -7.56803 24153 ft 469 kts 41°
2026-05-07 16:58 40.03291 -7.53823 24521 ft 469 kts 41°
2026-05-07 16:59 40.05621 -7.50847 24783 ft 471 kts 41°
2026-05-07 16:59 40.07967 -7.47849 25026 ft 473 kts 41°
2026-05-07 16:59 40.10323 -7.44837 25272 ft 475 kts 41°
2026-05-07 16:59 40.12722 -7.41767 25493 ft 477 kts 41°
2026-05-07 17:00 40.15063 -7.38766 25728 ft 479 kts 41°
2026-05-07 17:00 40.17451 -7.35696 25956 ft 481 kts 41°
2026-05-07 17:00 40.19845 -7.32616 26174 ft 483 kts 40°
2026-05-07 17:00 40.22247 -7.29524 26378 ft 485 kts 40°
2026-05-07 17:01 40.24654 -7.26424 26574 ft 487 kts 41°
2026-05-07 17:01 40.27074 -7.23302 26814 ft 488 kts 40°
2026-05-07 17:01 40.29486 -7.20185 27061 ft 488 kts 40°
2026-05-07 17:01 40.31902 -7.17061 27386 ft 486 kts 40°
2026-05-07 17:02 40.34305 -7.13947 27661 ft 486 kts 40°
2026-05-07 17:02 40.36711 -7.10830 27920 ft 486 kts 40°
2026-05-07 17:02 40.39116 -7.07709 28170 ft 486 kts 40°
2026-05-07 17:02 40.41515 -7.04595 28417 ft 487 kts 40°
2026-05-07 17:03 40.43927 -7.01458 28654 ft 487 kts 40°
2026-05-07 17:03 40.46329 -6.98330 28923 ft 487 kts 40°
2026-05-07 17:03 40.48733 -6.95200 29181 ft 487 kts 40°
2026-05-07 17:03 40.51146 -6.92058 29420 ft 488 kts 40°
2026-05-07 17:04 40.53554 -6.88920 29677 ft 488 kts 39°
2026-05-07 17:04 40.55964 -6.85780 29916 ft 488 kts 39°
2026-05-07 17:04 40.58373 -6.82636 30148 ft 488 kts 39°
2026-05-07 17:04 40.60776 -6.79491 30406 ft 486 kts 39°
2026-05-07 17:05 40.63169 -6.76353 30646 ft 486 kts 39°
2026-05-07 17:05 40.65567 -6.73206 30847 ft 486 kts 39°
2026-05-07 17:05 40.67925 -6.70108 31070 ft 486 kts 39°
2026-05-07 17:05 40.70314 -6.66967 31265 ft 486 kts 39°
2026-05-07 17:06 40.72713 -6.63806 31473 ft 486 kts 39°
2026-05-07 17:06 40.75103 -6.60649 31691 ft 486 kts 39°
2026-05-07 17:06 40.77492 -6.57495 31886 ft 486 kts 39°
2026-05-07 17:06 40.79881 -6.54343 32090 ft 486 kts 39°
2026-05-07 17:07 40.82275 -6.51182 32305 ft 486 kts 39°
2026-05-07 17:07 40.84663 -6.48026 32521 ft 486 kts 39°
2026-05-07 17:07 40.87053 -6.44863 32748 ft 486 kts 38°
2026-05-07 17:07 40.89436 -6.41702 32982 ft 485 kts 38°
2026-05-07 17:08 40.91819 -6.38541 33202 ft 485 kts 38°
2026-05-07 17:08 40.94195 -6.35382 33406 ft 485 kts 38°
2026-05-07 17:08 40.96573 -6.32215 33635 ft 485 kts 38°
2026-05-07 17:08 40.98948 -6.29047 33815 ft 485 kts 38°
2026-05-07 17:09 41.03839 -6.22934 33863 ft 482 kts 34°
2026-05-07 17:09 41.08886 -6.17086 33863 ft 481 kts 33°
2026-05-07 17:10 41.13913 -6.11230 33868 ft 482 kts 34°
2026-05-07 17:10 41.18893 -6.05274 33884 ft 481 kts 34°
2026-05-07 17:11 41.23825 -5.99303 33890 ft 479 kts 34°
2026-05-07 17:11 41.28721 -5.93391 33896 ft 479 kts 34°
2026-05-07 17:12 41.33663 -5.87434 33893 ft 478 kts 34°
2026-05-07 17:12 41.38598 -5.81481 33893 ft 479 kts 34°
2026-05-07 17:13 41.43529 -5.75514 33916 ft 478 kts 34°
2026-05-07 17:13 41.48443 -5.69543 33922 ft 478 kts 34°
2026-05-07 17:14 41.52971 -5.62947 33914 ft 491 kts 50°
2026-05-07 17:14 41.56106 -5.54748 33912 ft 500 kts 60°
2026-05-07 17:15 41.58915 -5.46274 33918 ft 500 kts 60°
2026-05-07 17:15 41.61742 -5.37777 33914 ft 500 kts 60°
2026-05-07 17:16 41.64558 -5.29279 33940 ft 500 kts 60°
2026-05-07 17:16 41.67347 -5.20809 33912 ft 494 kts 61°
2026-05-07 17:17 41.70093 -5.12420 33910 ft 492 kts 61°
2026-05-07 17:17 41.72848 -5.04007 33915 ft 493 kts 61°
2026-05-07 17:18 41.75601 -4.95599 33930 ft 493 kts 61°
2026-05-07 17:18 41.78340 -4.87179 33955 ft 493 kts 62°
2026-05-07 17:19 41.81069 -4.78749 33947 ft 492 kts 62°
2026-05-07 17:19 41.83786 -4.70322 33943 ft 492 kts 62°
2026-05-07 17:20 41.86500 -4.61898 33941 ft 491 kts 62°
2026-05-07 17:20 41.89211 -4.53488 33959 ft 491 kts 62°
2026-05-07 17:21 41.91910 -4.45073 33950 ft 491 kts 63°
2026-05-07 17:21 41.94595 -4.36652 33944 ft 490 kts 63°
2026-05-07 17:22 41.97278 -4.28237 33938 ft 490 kts 63°
2026-05-07 17:22 41.99958 -4.19816 33935 ft 489 kts 63°
2026-05-07 17:23 42.02622 -4.11396 33936 ft 490 kts 63°
2026-05-07 17:23 42.05415 -4.03049 33936 ft 488 kts 60°
2026-05-07 17:24 42.08380 -3.94837 33937 ft 488 kts 60°
2026-05-07 17:24 42.11353 -3.86626 33938 ft 488 kts 60°
2026-05-07 17:25 42.14270 -3.78355 33962 ft 489 kts 62°
2026-05-07 17:25 42.17144 -3.70059 33949 ft 488 kts 62°
2026-05-07 17:26 42.20017 -3.61773 33937 ft 488 kts 62°
2026-05-07 17:26 42.22904 -3.53478 33937 ft 488 kts 62°
2026-05-07 17:27 42.25773 -3.45223 33937 ft 488 kts 62°
2026-05-07 17:27 42.28657 -3.36857 33945 ft 488 kts 63°
2026-05-07 17:28 42.31517 -3.28541 33946 ft 487 kts 63°
2026-05-07 17:28 42.34363 -3.20248 33940 ft 487 kts 63°
2026-05-07 17:29 42.37221 -3.11915 33960 ft 487 kts 64°
2026-05-07 17:29 42.40066 -3.03591 33961 ft 487 kts 65°
2026-05-07 17:30 42.42875 -2.95331 33949 ft 486 kts 65°
2026-05-07 17:30 42.45037 -2.86701 33949 ft 485 kts 80°
2026-05-07 17:31 42.45499 -2.77611 33948 ft 484 kts 90°
2026-05-07 17:31 42.45622 -2.68503 33947 ft 484 kts 90°
2026-05-07 17:32 42.45742 -2.59382 33950 ft 484 kts 90°
2026-05-07 17:32 42.45837 -2.51795 33949 ft 485 kts 90°
2026-05-07 17:33 42.45960 -2.41119 33951 ft 485 kts 90°
2026-05-07 17:33 42.46248 -2.32012 33950 ft 486 kts 82°
2026-05-07 17:34 42.47671 -2.23064 33947 ft 485 kts 78°
2026-05-07 17:34 42.49165 -2.14149 33951 ft 485 kts 78°
2026-05-07 17:35 42.50633 -2.05247 33955 ft 484 kts 78°
2026-05-07 17:35 42.52094 -1.96340 33956 ft 484 kts 78°
2026-05-07 17:36 42.53309 -1.88921 33950 ft 484 kts 78°
2026-05-07 17:36 42.54764 -1.80016 33952 ft 484 kts 79°
2026-05-07 17:37 42.56207 -1.71106 33947 ft 483 kts 79°
2026-05-07 17:37 42.57642 -1.62204 33954 ft 483 kts 79°
2026-05-07 17:38 42.59082 -1.53281 33956 ft 483 kts 79°
2026-05-07 17:38 42.60496 -1.44431 33951 ft 482 kts 79°
2026-05-07 17:39 42.61906 -1.35539 33970 ft 482 kts 79°
2026-05-07 17:39 42.63302 -1.26657 33966 ft 481 kts 80°
2026-05-07 17:40 42.64694 -1.17759 33967 ft 480 kts 80°
2026-05-07 17:40 42.66081 -1.08893 33956 ft 479 kts 80°
2026-05-07 17:41 42.67463 -1.00025 33977 ft 479 kts 80°
2026-05-07 17:41 42.68839 -0.91169 33984 ft 478 kts 81°
2026-05-07 17:42 42.70197 -0.82318 33988 ft 478 kts 81°
2026-05-07 17:42 42.71546 -0.73471 33970 ft 478 kts 81°
2026-05-07 17:43 42.72894 -0.64611 33968 ft 478 kts 81°
2026-05-07 17:43 42.74210 -0.55935 33975 ft 479 kts 81°
2026-05-07 17:44 42.75653 -0.47083 33976 ft 481 kts 72°
2026-05-07 17:44 42.77102 -0.42954 33992 ft 483 kts 57°
2026-05-07 17:44 42.79246 -0.39433 33973 ft 484 kts 46°
2026-05-07 17:45 42.83934 -0.32841 33973 ft 485 kts 46°
2026-05-07 17:45 42.88641 -0.26232 33966 ft 486 kts 46°
2026-05-07 17:46 42.93305 -0.19640 33971 ft 486 kts 46°
2026-05-07 17:46 42.97993 -0.12976 33989 ft 487 kts 46°
2026-05-07 17:47 43.02684 -0.06310 33992 ft 487 kts 46°
2026-05-07 17:47 43.07367 0.00370 33973 ft 486 kts 47°
2026-05-07 17:48 43.12040 0.07051 33979 ft 486 kts 47°
2026-05-07 17:48 43.16710 0.13732 33981 ft 485 kts 47°
2026-05-07 17:49 43.21382 0.20430 33972 ft 485 kts 47°
2026-05-07 17:49 43.26028 0.27119 33981 ft 485 kts 47°
2026-05-07 17:50 43.30682 0.33819 33972 ft 485 kts 47°
2026-05-07 17:50 43.35334 0.40543 33950 ft 485 kts 47°
2026-05-07 17:51 43.39969 0.47277 33951 ft 485 kts 47°
2026-05-07 17:51 43.44586 0.53970 33964 ft 485 kts 47°
2026-05-07 17:52 43.49222 0.60710 33966 ft 484 kts 47°
2026-05-07 17:52 43.53834 0.67446 33967 ft 484 kts 47°
2026-05-07 17:53 43.58457 0.74211 33968 ft 484 kts 47°
2026-05-07 17:53 43.63070 0.80969 33955 ft 484 kts 47°
2026-05-07 17:54 43.67687 0.87742 33960 ft 484 kts 47°
2026-05-07 17:54 43.72291 0.94531 33962 ft 483 kts 47°
2026-05-07 17:55 43.76881 1.01324 33960 ft 483 kts 47°
2026-05-07 17:55 43.81443 1.08077 33963 ft 483 kts 47°
2026-05-07 17:56 43.86032 1.14875 33951 ft 484 kts 47°
2026-05-07 17:56 43.90621 1.21695 33953 ft 484 kts 47°
2026-05-07 17:57 43.94438 1.27399 33959 ft 485 kts 47°
2026-05-07 17:57 43.99811 1.35430 33966 ft 485 kts 47°
2026-05-07 17:58 44.04400 1.42303 33971 ft 485 kts 47°
2026-05-07 17:58 44.08982 1.49186 33972 ft 485 kts 47°
2026-05-07 17:59 44.13561 1.56083 33956 ft 485 kts 47°
2026-05-07 17:59 44.18133 1.63002 33962 ft 485 kts 47°
2026-05-07 18:00 44.22704 1.69931 33974 ft 486 kts 47°
2026-05-07 18:00 44.27287 1.76870 33977 ft 486 kts 47°
2026-05-07 18:01 44.31860 1.83804 33984 ft 486 kts 47°
2026-05-07 18:01 44.36432 1.90772 33984 ft 486 kts 47°
2026-05-07 18:02 44.43239 2.01204 33986 ft 486 kts 47°
2026-05-07 18:03 44.47797 2.08200 33990 ft 486 kts 47°
2026-05-07 18:03 44.52353 2.15200 33994 ft 486 kts 47°
2026-05-07 18:04 44.56911 2.22225 33993 ft 486 kts 47°
2026-05-07 18:04 44.61455 2.29249 33984 ft 486 kts 47°
2026-05-07 18:05 44.65992 2.36285 33980 ft 486 kts 47°
2026-05-07 18:05 44.70531 2.43338 33982 ft 486 kts 47°
2026-05-07 18:06 44.75072 2.50401 33985 ft 487 kts 47°
2026-05-07 18:06 44.79612 2.57487 33987 ft 487 kts 47°
2026-05-07 18:07 44.84140 2.64588 33991 ft 487 kts 47°
2026-05-07 18:07 44.88673 2.71694 33977 ft 488 kts 47°
2026-05-07 18:08 44.93205 2.78824 33979 ft 488 kts 47°
2026-05-07 18:08 44.97707 2.85921 33990 ft 488 kts 47°
2026-05-07 18:09 45.02233 2.93074 33990 ft 488 kts 47°
2026-05-07 18:09 45.06761 3.00254 33994 ft 488 kts 47°
2026-05-07 18:10 45.11277 3.07427 33978 ft 488 kts 47°
2026-05-07 18:10 45.15783 3.14617 33993 ft 488 kts 47°
2026-05-07 18:11 45.20291 3.21822 33990 ft 488 kts 48°
2026-05-07 18:11 45.24788 3.29027 33990 ft 487 kts 48°
2026-05-07 18:12 45.29273 3.36224 33989 ft 487 kts 48°
2026-05-07 18:12 45.33757 3.43441 34008 ft 487 kts 48°
2026-05-07 18:13 45.38231 3.50663 34000 ft 486 kts 47°
2026-05-07 18:13 45.42700 3.57894 34000 ft 486 kts 48°
2026-05-07 18:14 45.47156 3.65131 33995 ft 486 kts 48°
2026-05-07 18:14 45.51605 3.72367 33995 ft 486 kts 48°
2026-05-07 18:15 45.56025 3.79584 34004 ft 486 kts 48°
2026-05-07 18:15 45.60467 3.86853 34005 ft 485 kts 48°
2026-05-07 18:16 45.64903 3.94127 33998 ft 485 kts 48°
2026-05-07 18:16 45.69330 4.01397 34007 ft 485 kts 48°
2026-05-07 18:17 45.73754 4.08690 34026 ft 485 kts 48°
2026-05-07 18:17 45.78170 4.15990 34022 ft 485 kts 48°
2026-05-07 18:18 45.82576 4.23299 34023 ft 485 kts 48°
2026-05-07 18:18 45.86987 4.30622 34021 ft 485 kts 48°
2026-05-07 18:19 45.91384 4.37946 34023 ft 485 kts 48°
2026-05-07 18:19 45.95788 4.45301 34020 ft 485 kts 48°
2026-05-07 18:20 46.00177 4.52656 34022 ft 485 kts 48°
2026-05-07 18:20 46.04547 4.59985 34021 ft 485 kts 48°
2026-05-07 18:21 46.08937 4.67370 34027 ft 485 kts 48°
2026-05-07 18:21 46.13313 4.74758 34025 ft 485 kts 48°
2026-05-07 18:22 46.17686 4.82172 34017 ft 485 kts 48°
2026-05-07 18:22 46.21341 4.88389 34017 ft 485 kts 48°
2026-05-07 18:23 46.25703 4.95811 34020 ft 485 kts 48°
2026-05-07 18:23 46.30034 5.03198 34028 ft 485 kts 48°
2026-05-07 18:24 46.34399 5.10659 34025 ft 485 kts 48°
2026-05-07 18:24 46.38754 5.18122 34030 ft 485 kts 48°
2026-05-07 18:25 46.43104 5.25597 34026 ft 485 kts 48°
2026-05-07 18:25 46.47449 5.33093 34037 ft 485 kts 48°
2026-05-07 18:26 46.51793 5.40593 34032 ft 486 kts 48°
2026-05-07 18:26 46.56126 5.48111 34030 ft 486 kts 48°
2026-05-07 18:27 46.60458 5.55654 34037 ft 486 kts 48°
2026-05-07 18:27 46.64783 5.63203 34037 ft 486 kts 48°
2026-05-07 18:28 46.69124 5.70774 34041 ft 486 kts 48°
2026-05-07 18:28 46.73423 5.78302 34044 ft 486 kts 48°
2026-05-07 18:29 46.77747 5.85904 34049 ft 487 kts 48°
2026-05-07 18:29 46.82066 5.93520 34069 ft 487 kts 48°
2026-05-07 18:30 46.86387 6.01167 34063 ft 487 kts 48°
2026-05-07 18:30 46.90690 6.08791 34066 ft 487 kts 48°
2026-05-07 18:31 46.95007 6.16461 34062 ft 487 kts 48°
2026-05-07 18:31 46.99285 6.24091 34068 ft 487 kts 48°
2026-05-07 18:32 47.03579 6.31767 34079 ft 487 kts 48°
2026-05-07 18:32 47.07875 6.39468 34079 ft 487 kts 48°
2026-05-07 18:33 47.12159 6.47163 34078 ft 487 kts 48°
2026-05-07 18:33 47.16439 6.54870 34078 ft 486 kts 48°
2026-05-07 18:34 47.20705 6.62581 34091 ft 486 kts 49°
2026-05-07 18:34 47.24963 6.70304 34082 ft 485 kts 49°
2026-05-07 18:35 47.29208 6.78022 34088 ft 485 kts 49°
2026-05-07 18:35 47.33451 6.85752 34078 ft 484 kts 49°
2026-05-07 18:36 47.37682 6.93487 34080 ft 484 kts 49°
2026-05-07 18:36 47.41906 7.01228 34074 ft 483 kts 49°
2026-05-07 18:37 47.46110 7.08967 34072 ft 483 kts 49°
2026-05-07 18:37 47.50303 7.16705 34073 ft 482 kts 49°
2026-05-07 18:38 47.54461 7.24388 34070 ft 481 kts 49°
2026-05-07 18:38 47.58672 7.32176 34064 ft 479 kts 49°
2026-05-07 18:39 47.62777 7.39821 34060 ft 477 kts 49°
2026-05-07 18:39 47.66900 7.47528 34063 ft 477 kts 49°
2026-05-07 18:40 47.71016 7.55223 34062 ft 477 kts 49°
2026-05-07 18:40 47.75135 7.62949 34067 ft 477 kts 49°
2026-05-07 18:41 47.79254 7.70685 34075 ft 477 kts 49°
2026-05-07 18:41 47.83362 7.78427 34075 ft 476 kts 49°
2026-05-07 18:42 47.87468 7.86188 34085 ft 476 kts 50°
2026-05-07 18:42 47.91554 7.93953 34082 ft 476 kts 50°
2026-05-07 18:43 47.95638 8.01738 34111 ft 476 kts 50°
2026-05-07 18:43 47.99719 8.09523 34103 ft 475 kts 50°
2026-05-07 18:44 48.03794 8.17297 34101 ft 475 kts 50°
2026-05-07 18:44 48.08517 8.23956 34096 ft 464 kts 25°
2026-05-07 18:45 48.14377 8.27822 34099 ft 461 kts 19°
2026-05-07 18:45 48.20306 8.31523 34094 ft 461 kts 19°
2026-05-07 18:46 48.26223 8.35238 34091 ft 461 kts 19°
2026-05-07 18:46 48.32136 8.38971 34092 ft 461 kts 20°
2026-05-07 18:47 48.38012 8.42707 34108 ft 461 kts 20°
2026-05-07 18:47 48.43910 8.46467 34099 ft 460 kts 20°
2026-05-07 18:48 48.49802 8.50221 34009 ft 460 kts 20°
2026-05-07 18:48 48.52750 8.52100 33728 ft 459 kts 20°
2026-05-07 18:48 48.55686 8.53974 33449 ft 458 kts 20°
2026-05-07 18:48 48.58619 8.55852 33170 ft 458 kts 20°
2026-05-07 18:49 48.61555 8.57735 32909 ft 458 kts 20°
2026-05-07 18:49 48.64446 8.59594 32643 ft 458 kts 20°
2026-05-07 18:49 48.67402 8.61497 32268 ft 459 kts 20°
2026-05-07 18:49 48.70348 8.63399 31648 ft 459 kts 20°
2026-05-07 18:50 48.73280 8.65292 31040 ft 459 kts 20°
2026-05-07 18:50 48.76228 8.67190 30457 ft 459 kts 20°
2026-05-07 18:50 48.79156 8.69076 29815 ft 458 kts 20°
2026-05-07 18:50 48.82095 8.70970 29118 ft 459 kts 20°
2026-05-07 18:51 48.85040 8.72869 28457 ft 460 kts 20°
2026-05-07 18:51 48.87999 8.74784 27798 ft 463 kts 21°
2026-05-07 18:51 48.90915 8.76680 27166 ft 465 kts 21°
2026-05-07 18:51 48.93935 8.78648 26528 ft 467 kts 21°
2026-05-07 18:52 48.96925 8.80596 25931 ft 468 kts 21°
2026-05-07 18:52 48.99889 8.82530 25327 ft 469 kts 21°
2026-05-07 18:52 49.02861 8.84475 24714 ft 454 kts 21°
2026-05-07 18:52 49.05679 8.86327 24143 ft 431 kts 21°
2026-05-07 18:53 49.08431 8.88135 23577 ft 428 kts 21°
2026-05-07 18:53 49.11100 8.89882 22914 ft 425 kts 21°
2026-05-07 18:53 49.13803 8.91647 22289 ft 430 kts 21°
2026-05-07 18:53 49.16632 8.93493 21645 ft 446 kts 21°
2026-05-07 18:54 49.19479 8.95358 21025 ft 447 kts 21°
2026-05-07 18:54 49.22331 8.97236 20411 ft 444 kts 21°
2026-05-07 18:54 49.25206 8.99135 19805 ft 441 kts 21°
2026-05-07 18:54 49.27970 9.00961 19227 ft 438 kts 21°
2026-05-07 18:55 49.30760 9.02809 18637 ft 435 kts 21°
2026-05-07 18:55 49.33535 9.04651 18033 ft 432 kts 21°
2026-05-07 18:55 49.36284 9.06474 17389 ft 428 kts 21°
2026-05-07 18:55 49.38992 9.08272 16762 ft 423 kts 22°
2026-05-07 18:56 49.41720 9.10087 16131 ft 418 kts 22°
2026-05-07 18:56 49.44368 9.11846 15527 ft 413 kts 22°
2026-05-07 18:56 49.46957 9.13565 14939 ft 409 kts 22°
2026-05-07 18:56 49.49526 9.15276 14338 ft 397 kts 22°
2026-05-07 18:57 49.52066 9.16969 13766 ft 395 kts 22°
2026-05-07 18:57 49.54599 9.18660 13109 ft 386 kts 22°
2026-05-07 18:57 49.56969 9.20243 12466 ft 359 kts 22°
2026-05-07 18:57 49.59160 9.21712 11869 ft 337 kts 22°
2026-05-07 18:58 49.61250 9.23115 11279 ft 319 kts 22°
2026-05-07 18:58 49.63263 9.24466 10674 ft 305 kts 22°
2026-05-07 18:58 49.65174 9.25753 10045 ft 295 kts 22°
2026-05-07 18:58 49.66999 9.26981 9720 ft 289 kts 22°
2026-05-07 18:59 49.68864 9.28232 9367 ft 289 kts 21°
2026-05-07 18:59 49.70722 9.29256 9095 ft 285 kts 11°
2026-05-07 18:59 49.72670 9.29940 9066 ft 287 kts 11°
2026-05-07 18:59 49.74609 9.30634 9073 ft 286 kts 11°
2026-05-07 19:00 49.76553 9.31338 9075 ft 286 kts 11°
2026-05-07 19:00 49.78501 9.32047 9078 ft 286 kts 11°
2026-05-07 19:00 49.80438 9.32751 9078 ft 286 kts 11°
2026-05-07 19:00 49.82375 9.33420 9083 ft 285 kts
2026-05-07 19:01 49.84322 9.33248 9072 ft 281 kts 342°
2026-05-07 19:01 49.86054 9.31889 9073 ft 279 kts 323°
2026-05-07 19:01 49.87368 9.29741 9073 ft 277 kts 301°
2026-05-07 19:01 49.88292 9.27113 9079 ft 277 kts 296°
2026-05-07 19:02 49.88951 9.24312 9073 ft 277 kts 283°
2026-05-07 19:02 49.89404 9.21399 9077 ft 277 kts 283°
2026-05-07 19:02 49.89876 9.18502 9073 ft 277 kts 285°
2026-05-07 19:02 49.90387 9.15611 9078 ft 277 kts 285°
2026-05-07 19:03 49.90912 9.12741 9072 ft 277 kts 286°
2026-05-07 19:03 49.91442 9.09861 9077 ft 278 kts 286°
2026-05-07 19:03 49.91968 9.06977 9070 ft 278 kts 286°
2026-05-07 19:03 49.92492 9.04079 9074 ft 278 kts 285°
2026-05-07 19:04 49.92838 9.02161 9075 ft 278 kts 285°
2026-05-07 19:04 49.93358 8.99268 9071 ft 279 kts 285°
2026-05-07 19:04 49.93876 8.96369 9069 ft 279 kts 285°
2026-05-07 19:04 49.94389 8.93480 9068 ft 279 kts 285°
2026-05-07 19:05 49.95071 8.89631 9068 ft 278 kts 285°
2026-05-07 19:05 49.95585 8.86730 9077 ft 278 kts 285°
2026-05-07 19:05 49.95932 8.84768 9071 ft 278 kts 285°
2026-05-07 19:05 49.96444 8.81868 9075 ft 278 kts 285°
2026-05-07 19:06 49.96945 8.78961 9068 ft 278 kts 283°
2026-05-07 19:06 49.97384 8.73031 9073 ft 279 kts 270°
2026-05-07 19:06 49.97277 8.69990 9077 ft 279 kts 264°
2026-05-07 19:07 49.96958 8.67040 9073 ft 280 kts 257°
2026-05-07 19:07 49.96423 8.64151 9076 ft 280 kts 251°
2026-05-07 19:07 49.95745 8.61306 8952 ft 280 kts 250°
2026-05-07 19:07 49.95066 8.58485 8820 ft 279 kts 250°
2026-05-07 19:08 49.94385 8.55674 8686 ft 278 kts 250°
2026-05-07 19:08 49.93705 8.52863 8558 ft 278 kts 250°
2026-05-07 19:08 49.93025 8.50052 8428 ft 277 kts 250°
2026-05-07 19:08 49.92351 8.47257 8296 ft 276 kts 250°
2026-05-07 19:09 49.91681 8.44468 8166 ft 276 kts 250°
2026-05-07 19:09 49.91011 8.41686 7878 ft 274 kts 250°
2026-05-07 19:09 49.90344 8.38929 7485 ft 272 kts 250°
2026-05-07 19:09 49.89683 8.36196 7110 ft 270 kts 251°
2026-05-07 19:10 49.89022 8.33467 6745 ft 268 kts 250°
2026-05-07 19:10 49.88369 8.30767 6381 ft 266 kts 250°
2026-05-07 19:10 49.87716 8.28076 5959 ft 266 kts 250°
2026-05-07 19:10 49.87046 8.25325 5237 ft 277 kts 250°
2026-05-07 19:11 49.86383 8.22595 5046 ft 266 kts 252°
2026-05-07 19:11 49.86148 8.19801 4693 ft 260 kts 279°
2026-05-07 19:11 49.86755 8.17203 4272 ft 258 kts 300°
2026-05-07 19:11 49.87904 8.15168 4026 ft 253 kts 325°
2026-05-07 19:12 49.89501 8.14061 4018 ft 249 kts 349°
2026-05-07 19:12 49.91153 8.14051 4038 ft 229 kts 11°
2026-05-07 19:12 49.92562 8.14935 4031 ft 209 kts 32°
2026-05-07 19:12 49.93571 8.16356 4022 ft 182 kts 50°
2026-05-07 19:13 49.94174 8.17944 4019 ft 164 kts 66°
2026-05-07 19:13 49.94571 8.19572 4033 ft 160 kts 68°
2026-05-07 19:13 49.94960 8.21161 4026 ft 153 kts 67°
2026-05-07 19:13 49.95332 8.22687 4024 ft 150 kts 67°
2026-05-07 19:14 49.95699 8.24195 4025 ft 150 kts 67°
2026-05-07 19:14 49.96098 8.25830 3997 ft 172 kts 68°
2026-05-07 19:14 49.96529 8.27605 3825 ft 177 kts 68°
2026-05-07 19:14 49.96960 8.29388 3608 ft 177 kts 68°
2026-05-07 19:15 49.97392 8.31170 3377 ft 176 kts 68°
2026-05-07 19:15 49.97833 8.32991 3129 ft 182 kts 68°
2026-05-07 19:15 49.98280 8.34841 2885 ft 183 kts 68°
2026-05-07 19:15 49.98719 8.36656 2627 ft 170 kts 68°
2026-05-07 19:16 49.99109 8.38273 2411 ft 152 kts 68°
2026-05-07 19:16 49.99465 8.39749 2206 ft 144 kts 68°
2026-05-07 19:16 49.99819 8.41215 2018 ft 141 kts 68°
2026-05-07 19:16 50.00164 8.42646 1824 ft 140 kts 68°
2026-05-07 19:17 50.00503 8.44054 1641 ft 139 kts 69°
2026-05-07 19:17 50.00843 8.45465 1448 ft 139 kts 69°
2026-05-07 19:17 50.01184 8.46881 1258 ft 140 kts 69°
2026-05-07 19:17 50.01525 8.48300 1063 ft 140 kts 69°
2026-05-07 19:18 50.01867 8.49723 874 ft 140 kts 70°
2026-05-07 19:18 50.02203 8.51138 687 ft 140 kts 70°
2026-05-07 19:18 50.02549 8.52559 519 ft 140 kts 70°
2026-05-07 19:18 50.02887 8.53970 372 ft 139 kts 70°
2026-05-07 19:19 50.03198 8.55278 352 ft 113 kts 69°
2026-05-07 19:19 50.03428 8.56256 354 ft 82 kts 69°
2026-05-07 19:19 50.03582 8.56874 350 ft 42 kts 65°
2026-05-07 19:19 50.03716 8.57101 355 ft 14 kts 39°
2026-05-07 19:20 50.03776 8.57174 349 ft 12 kts 38°
2026-05-07 19:20 50.03838 8.57253 353 ft 11 kts 39°
2026-05-07 19:20 50.03899 8.57332 353 ft 11 kts 41°
2026-05-07 19:20 50.03928 8.57374 351 ft 6 kts 47°
2026-05-07 19:21 50.03955 8.57433 351 ft 8 kts 55°
2026-05-07 19:21 50.03982 8.57516 353 ft 10 kts 70°
2026-05-07 19:21 50.04007 8.57623 352 ft 11 kts 70°
2026-05-07 19:21 50.04040 8.57760 353 ft 16 kts 70°
2026-05-07 19:22 50.04087 8.57951 353 ft 21 kts 68°
2026-05-07 19:22 50.04137 8.58116 347 ft 12 kts 50°
2026-05-07 19:22 50.04208 8.58184 350 ft 1 kts 23°
2026-05-07 19:22 50.04209 8.58185 349 ft 1 kts 22°
2026-05-07 19:23 50.04254 8.58207 355 ft 14 kts
2026-05-07 19:23 50.04385 8.58145 351 ft 23 kts 337°
2026-05-07 19:23 50.04459 8.58099 352 ft 4 kts 339°
2026-05-07 19:23 50.04490 8.58082 352 ft 6 kts 340°
2026-05-07 19:24 50.04527 8.58045 354 ft 7 kts 309°
2026-05-07 19:24 50.04528 8.57957 352 ft 10 kts 255°
2026-05-07 19:24 50.04504 8.57853 349 ft 11 kts 250°
2026-05-07 19:24 50.04471 8.57708 351 ft 17 kts 250°
2026-05-07 19:25 50.04425 8.57510 349 ft 22 kts 250°
2026-05-07 19:25 50.04367 8.57269 354 ft 22 kts 249°
2026-05-07 19:25 50.04315 8.57057 347 ft 20 kts 249°
2026-05-07 19:25 50.04279 8.56877 348 ft 10 kts 273°
2026-05-07 19:26 50.04326 8.56822 351 ft 9 kts
2026-05-07 19:26 50.04391 8.56840 353 ft 10 kts 11°
2026-05-07 19:26 50.04467 8.56860 346 ft 11 kts 10°
2026-05-07 19:26 50.04542 8.56885 346 ft 4 kts 12°
2026-05-07 19:27 50.04567 8.56884 346 ft 2 kts 338°
2026-05-07 19:27 50.04570 8.56881 346 ft 1 kts 331°
2026-05-07 19:27 50.04576 8.56874 355 ft 1 kts 319°
2026-05-07 19:27 50.04581 8.56861 352 ft 1 kts 303°
2026-05-07 19:28 50.04590 8.56833 353 ft 6 kts 296°
2026-05-07 19:28 50.04600 8.56801 347 ft 1 kts 294°
2026-05-07 19:28 50.04603 8.56789 353 ft 2 kts 294°
2026-05-07 19:28 50.04605 8.56781 351 ft 0 kts 294°